Location: Bletchingley
(51.2333°N, 0.1000°W)
Time: 11:59:40
(UTC+00:00)

Cosmos 1513 Rocket - Pass Details

Date: 18 September 2020
Orbit: 939 x 1009 km, 82.9° (Epoch: 20 October)

Event Time Altitude Azimuth Distance (km) Brightness Sun altitude
Rises 19:34:49 0° 185° (S) 3,690 7.4 -14.2°
Reaches altitude 10° 19:37:20 10° 185° (S) 2,736 6.7 -14.6°
Maximum altitude 19:43:37 85° 99° (E) 983 4.4 -15.5°
Drops below altitude 10° 19:49:50 10° 11° (N) 2,706 7.0 -16.4°
Sets 19:52:19 0° 11° (N) 3,647 7.7 -16.8°
